Time,TemperatureF,DewpointF,PressureIn,WindDirection,WindDirectionDegrees,WindSpeedMPH,WindSpeedGustMPH,Humidity,HourlyPrecipIn,Conditions,Clouds,dailyrainin,SoftwareType,DateUTC
2013-03-12 00:02:00,47.0,46.0,-100.00,NNE,18,3.0,-999.0,97,0.00,,,-99.99,,2013-03-12 07:02:00,
2013-03-12 00:12:00,47.0,46.0,-100.00,NNE,18,3.0,-999.0,97,0.00,,,-99.99,,2013-03-12 07:12:00,
2013-03-12 00:21:00,47.0,46.0,-100.00,NNE,18,3.0,-999.0,97,0.00,,,-99.99,,2013-03-12 07:21:00,
2013-03-12 00:30:00,47.0,46.0,-100.00,NNE,12,1.0,-999.0,98,0.00,,,-99.99,,2013-03-12 07:30:00,
2013-03-12 00:52:00,47.0,46.0,-100.00,NNE,12,1.0,-999.0,98,0.00,,,-99.99,,2013-03-12 07:52:00,
2013-03-12 01:02:00,47.0,46.0,-100.00,NNE,12,1.0,-999.0,98,0.00,,,-99.99,,2013-03-12 08:02:00,
2013-03-12 01:12:00,47.0,46.0,-100.00,NNE,12,1.0,-999.0,98,0.00,,,-99.99,,2013-03-12 08:12:00,
2013-03-12 01:22:00,47.0,46.0,-100.00,NNE,12,1.0,-999.0,98,0.00,,,-99.99,,2013-03-12 08:22:00,
2013-03-12 01:30:00,46.0,46.0,-100.00,South,169,0.0,-999.0,98,0.00,,,-99.99,,2013-03-12 08:30:00,
2013-03-12 01:52:00,46.0,46.0,-100.00,South,169,0.0,-999.0,98,0.00,,,-99.99,,2013-03-12 08:52:00,
2013-03-12 02:03:00,46.0,46.0,-100.00,South,169,0.0,-999.0,98,0.00,,,-99.99,,2013-03-12 09:03:00,
2013-03-12 02:11:00,46.0,46.0,-100.00,South,169,0.0,-999.0,98,0.00,,,-99.99,,2013-03-12 09:11:00,
2013-03-12 02:22:00,46.0,46.0,-100.00,South,169,0.0,-999.0,98,0.00,,,-99.99,,2013-03-12 09:22:00,
2013-03-12 02:30:00,46.0,45.0,-100.00,NNW,332,1.0,-999.0,98,0.00,,,-99.99,,2013-03-12 09:30:00,
2013-03-12 02:52:00,46.0,45.0,-100.00,NNW,332,1.0,-999.0,98,0.00,,,-99.99,,2013-03-12 09:52:00,
2013-03-12 03:02:00,46.0,45.0,-100.00,NNW,332,1.0,-999.0,98,0.00,,,-99.99,,2013-03-12 10:02:00,
2013-03-12 03:12:00,46.0,45.0,-100.00,NNW,332,1.0,-999.0,98,0.00,,,-99.99,,2013-03-12 10:12:00,
2013-03-12 03:22:00,46.0,45.0,-100.00,NNW,332,1.0,-999.0,98,0.00,,,-99.99,,2013-03-12 10:22:00,
2013-03-12 03:30:00,45.0,44.0,-100.00,SSE,168,0.0,-999.0,98,0.00,,,-99.99,,2013-03-12 10:30:00,
2013-03-12 03:52:00,45.0,44.0,-100.00,SSE,168,0.0,-999.0,98,0.00,,,-99.99,,2013-03-12 10:52:00,
2013-03-12 04:02:00,45.0,44.0,-100.00,SSE,168,0.0,-999.0,98,0.00,,,-99.99,,2013-03-12 11:02:00,
2013-03-12 04:12:00,45.0,44.0,-100.00,SSE,168,0.0,-999.0,98,0.00,,,-99.99,,2013-03-12 11:12:00,
2013-03-12 04:22:00,45.0,44.0,-100.00,SSE,168,0.0,-999.0,98,0.00,,,-99.99,,2013-03-12 11:22:00,
2013-03-12 04:30:00,44.0,44.0,-100.00,SW,216,1.0,-999.0,99,0.00,,,-99.99,,2013-03-12 11:30:00,
2013-03-12 04:52:00,44.0,44.0,-100.00,SW,216,1.0,-999.0,99,0.00,,,-99.99,,2013-03-12 11:52:00,
2013-03-12 05:02:00,44.0,44.0,-100.00,SW,216,1.0,-999.0,99,0.00,,,-99.99,,2013-03-12 12:02:00,
2013-03-12 05:12:00,44.0,44.0,-100.00,SW,216,1.0,-999.0,99,0.00,,,-99.99,,2013-03-12 12:12:00,
2013-03-12 05:22:00,44.0,44.0,-100.00,SW,216,1.0,-999.0,99,0.00,,,-99.99,,2013-03-12 12:22:00,
2013-03-12 05:30:00,44.0,44.0,-100.00,SW,218,0.0,-999.0,99,0.00,,,-99.99,,2013-03-12 12:30:00,
2013-03-12 05:52:00,44.0,44.0,-100.00,SW,218,0.0,-999.0,99,0.00,,,-99.99,,2013-03-12 12:52:00,
2013-03-12 06:02:00,44.0,44.0,-100.00,SW,218,0.0,-999.0,99,0.00,,,-99.99,,2013-03-12 13:02:00,
2013-03-12 06:12:00,44.0,44.0,-100.00,SW,218,0.0,-999.0,99,0.00,,,-99.99,,2013-03-12 13:12:00,
2013-03-12 06:22:00,44.0,44.0,-100.00,SW,218,0.0,-999.0,99,0.00,,,-99.99,,2013-03-12 13:22:00,
2013-03-12 06:30:00,45.0,45.0,-100.00,SSE,156,0.0,-999.0,99,0.00,,,-99.99,,2013-03-12 13:30:00,
2013-03-12 06:52:00,45.0,45.0,-100.00,SSE,156,0.0,-999.0,99,0.00,,,-99.99,,2013-03-12 13:52:00,
2013-03-12 07:02:00,45.0,45.0,-100.00,SSE,156,0.0,-999.0,99,0.00,,,-99.99,,2013-03-12 14:02:00,
2013-03-12 07:12:00,45.0,45.0,-100.00,SSE,156,0.0,-999.0,99,0.00,,,-99.99,,2013-03-12 14:12:00,
2013-03-12 07:22:00,45.0,45.0,-100.00,SSE,156,0.0,-999.0,99,0.00,,,-99.99,,2013-03-12 14:22:00,
2013-03-12 07:30:00,45.0,45.0,-100.00,SSW,196,1.0,-999.0,98,0.00,,,-99.99,,2013-03-12 14:30:00,
2013-03-12 07:53:00,45.0,45.0,-100.00,SSW,196,1.0,-999.0,98,0.00,,,-99.99,,2013-03-12 14:53:00,
2013-03-12 08:02:00,45.0,45.0,-100.00,SSW,196,1.0,-999.0,98,0.00,,,-99.99,,2013-03-12 15:02:00,
2013-03-12 08:12:00,45.0,45.0,-100.00,SSW,196,1.0,-999.0,98,0.00,,,-99.99,,2013-03-12 15:12:00,
2013-03-12 08:22:00,45.0,45.0,-100.00,SSW,196,1.0,-999.0,98,0.00,,,-99.99,,2013-03-12 15:22:00,
2013-03-12 08:30:00,46.0,45.0,-100.00,SSW,195,2.0,-999.0,98,0.00,,,-99.99,,2013-03-12 15:30:00,
2013-03-12 08:53:00,46.0,45.0,-100.00,SSW,195,2.0,-999.0,98,0.00,,,-99.99,,2013-03-12 15:53:00,
2013-03-12 09:02:00,46.0,45.0,-100.00,SSW,195,2.0,-999.0,98,0.00,,,-99.99,,2013-03-12 16:02:00,
2013-03-12 09:12:00,46.0,45.0,-100.00,SSW,195,2.0,-999.0,98,0.00,,,-99.99,,2013-03-12 16:12:00,
2013-03-12 09:22:00,46.0,45.0,-100.00,SSW,195,2.0,-999.0,98,0.00,,,-99.99,,2013-03-12 16:22:00,
2013-03-12 09:30:00,47.0,47.0,-100.00,South,182,1.0,-999.0,98,0.00,,,-99.99,,2013-03-12 16:30:00,
2013-03-12 09:53:00,47.0,47.0,-100.00,South,182,1.0,-999.0,98,0.00,,,-99.99,,2013-03-12 16:53:00,
2013-03-12 10:02:00,47.0,47.0,-100.00,South,182,1.0,-999.0,98,0.00,,,-99.99,,2013-03-12 17:02:00,
2013-03-12 10:12:00,47.0,47.0,-100.00,South,182,1.0,-999.0,98,0.00,,,-99.99,,2013-03-12 17:12:00,
2013-03-12 10:22:00,47.0,47.0,-100.00,South,182,1.0,-999.0,98,0.00,,,-99.99,,2013-03-12 17:22:00,
2013-03-12 10:30:00,50.0,48.0,-100.00,South,182,2.0,-999.0,96,0.00,,,-99.99,,2013-03-12 17:30:00,
2013-03-12 10:53:00,50.0,48.0,-100.00,South,182,2.0,-999.0,96,0.00,,,-99.99,,2013-03-12 17:53:00,
2013-03-12 11:02:00,50.0,48.0,-100.00,South,182,2.0,-999.0,96,0.00,,,-99.99,,2013-03-12 18:02:00,
2013-03-12 11:12:00,50.0,48.0,-100.00,South,182,2.0,-999.0,96,0.00,,,-99.99,,2013-03-12 18:12:00,
2013-03-12 11:22:00,50.0,48.0,-100.00,South,182,2.0,-999.0,96,0.00,,,-99.99,,2013-03-12 18:22:00,
2013-03-12 11:30:00,51.0,49.0,-100.00,NW,314,2.0,-999.0,93,0.00,,,-99.99,,2013-03-12 18:30:00,
2013-03-12 11:53:00,51.0,49.0,-100.00,NW,314,2.0,-999.0,93,0.00,,,-99.99,,2013-03-12 18:53:00,
2013-03-12 12:03:00,51.0,49.0,-100.00,NW,314,2.0,-999.0,93,0.00,,,-99.99,,2013-03-12 19:03:00,
2013-03-12 12:12:00,51.0,49.0,-100.00,NW,314,2.0,-999.0,93,0.00,,,-99.99,,2013-03-12 19:12:00,
2013-03-12 12:22:00,51.0,49.0,-100.00,NW,314,2.0,-999.0,93,0.00,,,-99.99,,2013-03-12 19:22:00,
2013-03-12 12:30:00,51.0,49.0,-100.00,North,350,1.0,-999.0,92,0.00,,,-99.99,,2013-03-12 19:30:00,
2013-03-12 12:53:00,51.0,49.0,-100.00,North,350,1.0,-999.0,92,0.00,,,-99.99,,2013-03-12 19:53:00,
2013-03-12 13:02:00,51.0,49.0,-100.00,North,350,1.0,-999.0,92,0.00,,,-99.99,,2013-03-12 20:02:00,
2013-03-12 13:22:00,51.0,49.0,-100.00,North,350,1.0,-999.0,92,0.00,,,-99.99,,2013-03-12 20:22:00,
2013-03-12 13:30:00,52.0,49.0,-100.00,NNE,29,1.0,-999.0,88,0.00,,,-99.99,,2013-03-12 20:30:00,
2013-03-12 13:53:00,52.0,49.0,-100.00,NNE,29,1.0,-999.0,88,0.00,,,-99.99,,2013-03-12 20:53:00,
2013-03-12 14:02:00,52.0,49.0,-100.00,NNE,29,1.0,-999.0,88,0.00,,,-99.99,,2013-03-12 21:02:00,
2013-03-12 14:12:00,52.0,49.0,-100.00,NNE,29,1.0,-999.0,88,0.00,,,-99.99,,2013-03-12 21:12:00,
2013-03-12 14:22:00,52.0,49.0,-100.00,NNE,29,1.0,-999.0,88,0.00,,,-99.99,,2013-03-12 21:22:00,
2013-03-12 14:30:00,52.0,49.0,-100.00,West,281,1.0,-999.0,87,0.00,,,-99.99,,2013-03-12 21:30:00,
2013-03-12 14:52:00,52.0,49.0,-100.00,West,281,1.0,-999.0,87,0.00,,,-99.99,,2013-03-12 21:52:00,
2013-03-12 15:02:00,52.0,49.0,-100.00,West,281,1.0,-999.0,87,0.00,,,-99.99,,2013-03-12 22:02:00,
2013-03-12 15:12:00,52.0,49.0,-100.00,West,281,1.0,-999.0,87,0.00,,,-99.99,,2013-03-12 22:12:00,
2013-03-12 15:22:00,52.0,49.0,-100.00,West,281,1.0,-999.0,87,0.00,,,-99.99,,2013-03-12 22:22:00,
2013-03-12 15:30:00,50.0,47.0,-100.00,NNE,21,4.0,-999.0,92,0.00,,,-99.99,,2013-03-12 22:30:00,
2013-03-12 15:53:00,50.0,47.0,-100.00,NNE,21,4.0,-999.0,92,0.00,,,-99.99,,2013-03-12 22:53:00,
2013-03-12 16:02:00,50.0,47.0,-100.00,NNE,21,4.0,-999.0,92,0.00,,,-99.99,,2013-03-12 23:02:00,
2013-03-12 16:12:00,50.0,47.0,-100.00,NNE,21,4.0,-999.0,92,0.00,,,-99.99,,2013-03-12 23:12:00,
2013-03-12 16:22:00,50.0,47.0,-100.00,NNE,21,4.0,-999.0,92,0.00,,,-99.99,,2013-03-12 23:22:00,
2013-03-12 16:30:00,49.0,47.0,-100.00,NNE,32,3.0,-999.0,94,0.00,,,-99.99,,2013-03-12 23:30:00,
2013-03-12 16:52:00,49.0,47.0,-100.00,NNE,32,3.0,-999.0,94,0.00,,,-99.99,,2013-03-12 23:52:00,
2013-03-12 17:02:00,49.0,47.0,-100.00,NNE,32,3.0,-999.0,94,0.00,,,-99.99,,2013-03-13 00:02:00,
2013-03-12 17:12:00,49.0,47.0,-100.00,NNE,32,3.0,-999.0,94,0.00,,,-99.99,,2013-03-13 00:12:00,
2013-03-12 17:22:00,49.0,47.0,-100.00,NNE,32,3.0,-999.0,94,0.00,,,-99.99,,2013-03-13 00:22:00,
2013-03-12 17:30:00,47.0,46.0,-100.00,NNE,21,3.0,-999.0,96,0.00,,,-99.99,,2013-03-13 00:30:00,
2013-03-12 17:53:00,47.0,46.0,-100.00,NNE,21,3.0,-999.0,96,0.00,,,-99.99,,2013-03-13 00:53:00,
2013-03-12 18:02:00,47.0,46.0,-100.00,NNE,21,3.0,-999.0,96,0.00,,,-99.99,,2013-03-13 01:02:00,
2013-03-12 18:12:00,47.0,46.0,-100.00,NNE,21,3.0,-999.0,96,0.00,,,-99.99,,2013-03-13 01:12:00,
2013-03-12 18:22:00,47.0,46.0,-100.00,NNE,21,3.0,-999.0,96,0.00,,,-99.99,,2013-03-13 01:22:00,
2013-03-12 18:30:00,48.0,47.0,-100.00,NNE,20,3.0,-999.0,95,0.00,,,-99.99,,2013-03-13 01:30:00,
2013-03-12 18:52:00,48.0,47.0,-100.00,NNE,20,3.0,-999.0,95,0.00,,,-99.99,,2013-03-13 01:52:00,
2013-03-12 19:02:00,48.0,47.0,-100.00,NNE,20,3.0,-999.0,95,0.00,,,-99.99,,2013-03-13 02:02:00,
2013-03-12 19:12:00,48.0,47.0,-100.00,NNE,20,3.0,-999.0,95,0.00,,,-99.99,,2013-03-13 02:12:00,
2013-03-12 19:22:00,48.0,47.0,-100.00,NNE,20,3.0,-999.0,95,0.00,,,-99.99,,2013-03-13 02:22:00,
2013-03-12 19:30:00,48.0,46.0,-100.00,NNE,15,2.0,-999.0,95,0.00,,,-99.99,,2013-03-13 02:30:00,
2013-03-12 19:52:00,48.0,46.0,-100.00,NNE,15,2.0,-999.0,95,0.00,,,-99.99,,2013-03-13 02:52:00,
2013-03-12 20:02:00,48.0,46.0,-100.00,NNE,15,2.0,-999.0,95,0.00,,,-99.99,,2013-03-13 03:02:00,
2013-03-12 20:12:00,48.0,46.0,-100.00,NNE,15,2.0,-999.0,95,0.00,,,-99.99,,2013-03-13 03:12:00,
2013-03-12 20:22:00,48.0,46.0,-100.00,NNE,15,2.0,-999.0,95,0.00,,,-99.99,,2013-03-13 03:22:00,
2013-03-12 20:30:00,47.0,46.0,-100.00,NE,39,1.0,-999.0,96,0.00,,,-99.99,,2013-03-13 03:30:00,
2013-03-12 20:52:00,47.0,46.0,-100.00,NE,39,1.0,-999.0,96,0.00,,,-99.99,,2013-03-13 03:52:00,
2013-03-12 21:02:00,47.0,46.0,-100.00,NE,39,1.0,-999.0,96,0.00,,,-99.99,,2013-03-13 04:02:00,
2013-03-12 21:12:00,47.0,46.0,-100.00,NE,39,1.0,-999.0,96,0.00,,,-99.99,,2013-03-13 04:12:00,
2013-03-12 21:22:00,47.0,46.0,-100.00,NE,39,1.0,-999.0,96,0.00,,,-99.99,,2013-03-13 04:22:00,
2013-03-12 21:30:00,47.0,46.0,-100.00,NE,55,0.0,-999.0,96,0.00,,,-99.99,,2013-03-13 04:30:00,
2013-03-12 21:53:00,47.0,46.0,-100.00,NE,55,0.0,-999.0,96,0.00,,,-99.99,,2013-03-13 04:53:00,
2013-03-12 22:02:00,47.0,46.0,-100.00,NE,55,0.0,-999.0,96,0.00,,,-99.99,,2013-03-13 05:02:00,
2013-03-12 22:12:00,47.0,46.0,-100.00,NE,55,0.0,-999.0,96,0.00,,,-99.99,,2013-03-13 05:12:00,
2013-03-12 22:22:00,47.0,46.0,-100.00,NE,55,0.0,-999.0,96,0.00,,,-99.99,,2013-03-13 05:22:00,
2013-03-12 22:30:00,47.0,46.0,-100.00,SSE,167,1.0,-999.0,96,0.00,,,-99.99,,2013-03-13 05:30:00,
2013-03-12 22:52:00,47.0,46.0,-100.00,SSE,167,1.0,-999.0,96,0.00,,,-99.99,,2013-03-13 05:52:00,
2013-03-12 23:02:00,47.0,46.0,-100.00,SSE,167,1.0,-999.0,96,0.00,,,-99.99,,2013-03-13 06:02:00,
2013-03-12 23:12:00,47.0,46.0,-100.00,SSE,167,1.0,-999.0,96,0.00,,,-99.99,,2013-03-13 06:12:00,
2013-03-12 23:22:00,47.0,46.0,-100.00,SSE,167,1.0,-999.0,96,0.00,,,-99.99,,2013-03-13 06:22:00,
2013-03-12 23:30:00,47.0,46.0,-100.00,SW,219,1.0,-999.0,96,0.00,,,-99.99,,2013-03-13 06:30:00,
2013-03-12 23:52:00,47.0,46.0,-100.00,SW,219,1.0,-999.0,96,0.00,,,-99.99,,2013-03-13 06:52:00,